Theta_e
316 316 315 314 314 314 313 312 312 313 312 313 313 312 311 312 312 312 311 317 322 321 323 321 321 320 321 321 320 320 320 317 317 316 317 318 318 317 317 315 314 313 311
318 316 315 315 313 314 313 312 312 311 311 311 311 311 311 310 311 312 310 311 319 320 323 323 322 324 323 322 320 321 320 319 317 315 317 318 318 317 315 314 315 313 312
319 317 315 314 314 314 312 311 311 310 309 309 309 310 310 310 309 310 311 310 311 316 319 322 323 323 324 324 323 323 322 321 319 318 317 317 317 317 316 315 314 314 312
320 318 317 316 314 312 311 310 309 308 307 307 307 307 307 308 309 309 310 309 310 311 314 319 321 323 323 324 325 324 324 323 322 319 318 317 317 318 317 316 314 314 313
319 318 317 316 314 311 310 309 307 307 305 305 306 306 305 306 309 309 309 309 307 309 310 314 316 317 320 323 324 325 326 325 325 322 320 318 318 318 318 317 316 315 314
318 318 316 315 313 310 308 307 306 305 305 305 307 307 304 305 305 306 306 307 307 308 309 309 308 310 313 319 322 323 325 325 325 325 324 321 319 318 318 317 317 316 315
318 317 316 314 312 310 309 306 305 305 303 306 306 305 301 304 305 305 305 305 306 307 307 306 307 307 308 314 318 321 323 324 324 324 324 323 323 320 319 318 318 317 316
320 319 316 314 311 308 307 306 304 301 303 306 301 299 300 304 302 301 301 302 302 304 305 306 306 305 306 306 307 314 317 319 320 320 320 321 321 322 322 321 319 319 318
322 319 316 313 311 311 311 309 307 305 303 300 304 305 299 299 300 301 300 300 300 300 300 303 304 304 303 303 305 306 309 310 312 315 316 318 319 320 320 321 322 321 320
323 321 319 318 315 313 311 311 308 307 306 302 302 303 302 302 300 298 299 298 299 299 300 299 300 299 301 300 302 302 303 305 307 309 311 313 314 316 318 319 320 321 323
324 321 320 318 316 315 314 312 308 307 307 307 305 300 300 298 297 297 294 297 298 298 297 294 294 296 298 298 297 299 301 303 303 304 305 307 309 311 314 316 317 318 319
325 323 320 319 318 316 314 313 312 309 308 308 306 302 301 298 295 294 293 294 294 295 293 293 292 295 295 295 295 296 297 299 301 302 302 303 304 306 309 312 314 315 316
320 322 321 319 318 317 315 314 311 310 309 307 306 305 304 302 299 297 295 293 292 293 293 294 293 291 293 293 291 292 293 296 299 300 300 301 303 304 305 307 308 310 312
321 322 320 319 318 317 316 314 312 310 307 306 305 303 302 301 300 298 297 292 290 289 291 293 294 293 291 291 291 292 291 294 296 298 299 300 300 301 302 304 305 306 307
315 317 316 315 314 314 312 311 307 306 303 302 301 301 301 300 299 299 298 295 293 287 288 293 293 293 290 289 291 291 290 292 295 296 297 297 298 299 299 300 301 303 305
311 311 311 310 308 308 307 306 304 301 300 299 299 299 298 298 298 296 293 294 293 292 287 293 292 292 292 292 292 290 289 290 290 293 294 295 296 297 297 298 298 299 301
308 307 306 305 304 304 302 301 300 299 298 297 297 296 295 296 294 294 291 291 291 291 288 290 291 292 291 291 290 289 289 287 285 290 292 294 294 295 295 295 296 296 297
305 304 302 301 300 300 300 299 297 297 296 295 294 293 293 293 292 292 291 290 290 290 287 287 288 289 288 289 289 288 288 288 286 288 292 293 293 293 293 293 293 293 293
298 297 297 296 294 292 294 295 296 295 295 294 292 291 291 290 289 288 289 288 287 289 287 286 287 287 287 286 286 285 285 286 286 288 291 291 290 290 291 291 291 290 289
295 293 291 290 289 290 289 290 290 291 291 291 289 289 289 288 288 288 287 287 286 286 286 286 286 286 286 285 283 283 284 284 284 285 286 286 287 288 289 289 289 287 287
288 288 288 287 288 288 287 288 288 288 287 286 286 285 286 287 288 289 286 286 285 285 285 285 285 285 285 285 284 284 284 285 286 283 279 280 280 282 282 284 284 285 288
286 287 287 288 287 286 289 291 288 285 284 284 283 282 282 281 283 288 289 290 289 285 285 285 285 284 285 285 284 284 284 282 281 281 280 283 282 281 281 280 285 287 287
286 285 284 285 285 286 290 290 288 284 283 283 284 283 284 284 282 282 285 287 286 287 288 286 284 284 284 284 283 282 282 282 282 284 281 281 280 279 280 281 285 286 287
283 283 282 282 282 283 289 289 287 283 282 282 282 283 282 282 283 283 281 280 281 282 282 282 282 283 284 285 284 284 283 283 284 284 282 278 274 275 278 277 283 285 286
282 281 280 279 280 279 288 288 285 279 281 281 283 283 285 284 286 287 285 284 283 284 286 287 288 289 289 290 289 285 281 280 279 280 279 279 275 274 273 274 278 282 283
282 282 280 277 277 276 288 288 284 279 277 281 282 284 284 285 286 287 284 284 283 283 284 284 284 285 286 286 287 285 283 279 279 277 277 276 271 272 271 273 275 274 275
Wind_Speed
4 4 4 3 3 3 3 2 2 2 1 1 2 3 3 2 2 1 1 2 1 3 4 3 4 4 4 4 4 5 5 6 5 5 5 5 6 7 7 6 5 6 4
5 4 4 4 4 3 3 3 3 3 2 0 1 0 2 1 2 3 2 3 5 4 5 6 6 8 8 8 8 8 9 9 8 6 7 9 8 7 7 7 9 7 7
6 6 4 4 5 4 5 3 2 2 2 1 3 3 2 2 2 2 3 3 4 7 7 8 10 10 10 11 10 12 12 13 13 13 13 10 11 11 12 11 10 9 9
7 6 5 5 4 3 4 3 3 3 3 3 2 3 3 3 5 4 4 3 4 3 6 10 11 13 13 14 15 14 17 18 18 17 17 17 16 16 15 15 14 13 12
7 6 5 4 5 4 3 3 2 2 3 3 3 4 4 4 5 4 6 5 5 5 3 7 10 11 13 15 17 17 19 18 20 21 21 21 21 22 21 21 19 19 18
7 6 5 6 5 4 4 3 4 3 3 3 3 4 4 5 5 5 6 4 4 5 4 4 4 4 10 15 16 21 22 21 20 20 23 25 24 24 24 23 22 22 22
8 8 5 5 5 6 6 5 3 5 3 2 1 3 4 7 6 6 4 4 5 5 6 5 3 3 4 10 13 18 21 23 23 25 22 21 23 25 25 25 26 25 25
10 8 7 6 6 4 6 6 5 3 3 4 2 1 4 4 2 3 4 4 6 4 5 5 5 5 5 4 7 16 19 22 23 25 25 26 24 19 22 29 28 28 28
9 9 9 6 6 5 7 7 6 6 3 3 5 3 0 4 3 1 3 3 5 3 4 4 5 5 4 4 7 10 15 17 20 24 26 27 27 27 25 26 25 31 31
8 9 8 9 9 7 7 8 6 5 4 4 2 4 2 0 3 4 2 3 3 4 4 3 4 4 5 4 6 9 12 16 18 21 23 24 24 26 27 28 29 28 28
10 10 10 9 8 7 8 7 6 8 7 5 5 2 3 3 2 3 3 4 3 3 4 3 4 4 5 4 4 6 12 14 16 18 19 20 21 23 24 25 27 27 26
6 8 9 9 10 8 8 8 8 8 8 8 4 4 4 4 3 3 5 4 4 4 3 4 4 4 4 3 4 9 11 13 14 15 16 17 18 20 21 22 24 25 27
4 8 10 9 8 10 9 8 7 8 8 7 7 6 5 5 3 3 2 2 3 3 3 4 3 4 3 3 3 7 8 11 13 14 15 16 18 19 20 21 22 23 25
6 6 8 7 8 8 8 7 5 5 5 5 6 4 3 4 3 3 3 3 3 3 2 5 2 2 2 3 4 7 5 10 13 14 16 17 18 19 20 21 22 23 24
3 5 5 5 5 5 4 4 3 4 4 4 3 3 2 1 2 3 3 3 3 2 2 2 2 2 2 3 4 5 5 10 14 16 17 19 19 20 21 21 22 23 24
4 4 4 4 4 4 5 5 3 2 4 3 3 3 2 2 2 2 2 3 3 3 3 3 3 2 4 4 5 5 5 8 11 15 17 19 19 20 21 21 22 23 24
5 5 5 6 5 5 4 5 5 5 5 3 2 2 2 1 2 2 1 1 2 3 4 3 3 1 4 6 6 4 4 5 5 14 17 18 19 19 19 21 22 23 24
6 6 6 6 6 5 4 5 4 4 3 2 1 1 2 1 2 2 2 3 3 3 3 6 3 3 5 4 5 6 6 4 5 13 19 19 19 19 18 18 18 20 21
6 6 6 6 6 5 5 5 4 3 4 3 2 1 2 1 3 2 2 2 2 2 3 3 4 2 3 2 3 3 5 5 3 11 18 20 19 16 17 18 19 19 18
6 6 6 6 6 5 6 5 4 3 3 2 1 0 2 2 3 4 3 4 2 3 2 3 4 4 3 2 2 4 6 3 5 5 11 12 13 13 18 19 18 17 18
6 6 6 6 6 5 4 5 4 4 3 2 1 1 1 3 5 5 2 3 2 3 4 4 6 5 6 4 5 3 6 8 7 5 3 3 3 6 7 10 11 14 17
6 6 6 6 6 4 7 7 5 3 3 2 1 2 2 2 3 5 7 8 7 3 5 5 6 8 8 6 2 4 7 8 7 3 2 6 3 8 6 4 13 15 15
5 6 5 5 6 5 7 6 6 3 2 2 2 3 4 3 4 4 7 9 7 9 10 8 9 8 10 8 8 9 8 8 9 7 2 9 2 7 5 6 13 14 13
5 4 4 5 5 3 6 6 6 3 3 4 4 4 4 4 5 4 2 3 4 4 5 5 7 9 9 9 8 8 9 9 9 6 3 5 1 4 4 4 9 9 10
3 3 3 4 4 3 5 6 5 3 4 4 4 4 4 5 9 11 8 7 6 6 7 13 16 19 20 20 16 6 6 8 10 4 3 3 1 3 2 3 3 8 9
5 4 4 3 3 3 7 8 6 3 4 4 4 4 6 7 11 13 6 6 8 9 9 8 6 10 13 12 18 11 7 8 7 5 2 3 1 0 5 2 2 2 3
Wind_Direction
171 161 176 168 175 167 178 191 183 156 135 73 73 107 97 160 176 195 247 261 321 288 220 212 225 210 211 203 203 206 190 204 196 221 227 196 195 185 176 185 198 187 190
175 177 176 186 190 195 186 185 181 177 198 195 271 32 164 148 215 218 242 271 257 271 274 250 250 241 227 224 235 223 216 224 225 231 236 227 218 207 204 215 218 218 214
182 179 183 189 197 188 188 176 176 171 184 226 242 258 268 252 225 240 243 244 275 282 267 264 261 255 252 247 234 236 230 226 221 219 226 233 228 227 222 221 225 225 226
181 182 188 201 194 185 175 174 175 191 216 214 234 256 272 278 267 247 246 242 241 244 269 266 261 267 261 258 247 238 241 236 227 222 221 218 224 228 226 223 231 225 236
185 183 193 195 173 181 189 172 188 178 200 234 249 253 252 251 251 252 242 234 240 250 253 269 288 292 284 275 270 272 262 258 253 236 225 224 224 222 219 220 221 221 221
191 185 191 184 177 175 185 180 183 201 200 212 247 256 251 247 239 234 243 246 239 243 250 269 278 298 290 278 277 279 283 284 286 268 254 237 228 228 228 225 224 225 222
190 189 194 186 177 194 198 178 170 201 240 210 302 295 268 239 243 242 237 243 247 244 237 237 231 252 277 285 280 282 290 294 298 304 294 299 256 243 236 233 229 228 228
193 197 192 197 188 174 185 194 172 174 204 185 162 77 319 327 294 247 247 229 237 244 261 262 255 246 247 253 261 275 284 291 296 296 299 302 301 299 285 247 238 233 231
197 200 191 186 182 189 213 203 187 186 181 210 211 179 240 242 329 356 271 254 256 242 256 258 261 268 264 255 269 282 285 291 298 300 298 295 293 295 292 294 269 251 241
201 202 207 204 203 198 205 209 192 188 157 210 214 231 231 186 238 311 326 295 289 277 267 266 270 275 267 264 266 272 282 291 296 297 297 299 300 298 294 289 287 290 267
196 198 200 200 203 200 219 202 190 198 207 205 205 164 226 202 248 240 274 300 320 265 262 259 270 267 258 255 262 273 287 298 301 302 301 300 301 300 297 293 290 292 293
203 203 201 200 203 201 206 214 207 204 204 216 193 181 186 179 196 196 234 251 252 292 291 289 268 267 277 279 283 292 303 307 310 312 311 310 309 307 304 302 298 296 293
191 205 197 202 202 206 202 195 200 209 207 207 203 212 215 220 156 191 193 239 251 291 315 274 280 275 282 305 303 305 311 307 312 314 314 314 311 311 309 306 303 299 297
204 209 197 195 200 198 198 191 200 200 177 202 198 189 183 202 170 187 196 162 282 268 306 267 284 286 312 309 307 299 284 299 307 311 313 311 307 307 306 305 304 303 302
178 176 178 181 187 190 194 179 168 175 159 170 199 194 209 209 197 216 206 170 192 276 261 285 292 333 340 297 285 289 296 304 316 316 314 307 306 305 303 302 302 302 301
133 141 132 128 115 116 129 129 125 125 127 118 140 167 196 227 228 217 212 202 199 227 245 226 266 286 290 288 278 282 287 295 304 306 305 303 303 303 303 302 304 304 302
113 109 116 107 104 97 90 97 95 108 108 127 121 158 224 268 277 266 234 224 228 203 249 269 247 281 286 285 301 299 295 300 296 303 302 301 301 302 301 303 305 305 306
88 100 93 92 94 102 101 107 113 120 118 101 54 41 312 334 307 292 267 254 245 226 220 271 253 251 237 272 276 295 302 291 290 303 306 305 304 306 308 310 309 311 307
81 81 92 97 99 88 81 68 80 81 69 63 55 23 298 314 293 302 296 290 266 268 229 245 280 258 268 258 275 261 268 280 277 286 293 294 299 304 309 311 310 310 316
96 87 89 99 91 85 82 83 85 85 87 85 90 294 322 310 295 307 295 277 270 273 258 265 278 281 262 288 267 282 281 246 273 261 272 276 281 294 304 306 308 310 307
102 111 105 87 92 99 114 113 110 108 115 130 99 301 267 270 278 271 254 270 274 287 288 285 284 285 285 285 286 280 285 297 287 240 269 279 284 299 298 300 299 302 303
116 112 114 128 118 106 93 93 95 101 90 96 14 346 327 329 303 307 300 294 274 267 281 286 283 278 284 291 291 300 301 306 310 193 252 295 271 301 291 281 295 305 310
104 94 90 97 88 77 89 88 93 99 107 75 28 8 4 1 353 336 329 324 323 310 299 298 291 283 293 293 291 292 286 280 278 283 253 289 171 279 293 293 305 306 309
95 100 96 88 97 70 93 91 91 100 93 69 58 27 19 4 350 338 320 324 297 282 280 274 263 276 271 272 258 267 278 284 275 262 197 277 353 274 300 290 329 333 320
143 108 102 101 105 71 99 112 122 100 70 44 24 22 359 349 347 338 326 304 297 295 262 277 283 285 286 290 287 278 280 288 291 268 205 244 266 284 283 288 306 348 347
96 96 101 90 117 105 75 75 86 74 55 35 23 14 2 352 338 333 324 315 310 308 301 289 278 273 271 270 273 261 263 269 272 281 224 192 239 302 319 274 294 316 331